Temp
63 62 62 62 62 62 62 62 61 61 61 61 61 61 61 61 61 61 61 61 61 61 61 62 62 63 57 56 67 81 82 81 80 82 81 78 72 71 69 73 74 71 74 79 78 79 80
62 62 62 62 62 62 61 61 61 61 61 61 60 60 60 61 61 61 61 61 60 60 61 62 63 63 54 56 78 81 81 78 80 80 79 78 76 77 71 73 71 77 76 76 78 79 80
62 62 62 62 62 61 61 61 61 61 61 60 60 60 60 60 60 61 60 60 60 60 61 62 63 63 56 67 80 77 75 74 79 80 77 78 79 73 72 72 79 77 72 73 75 76 76
62 62 62 61 61 61 61 61 61 60 60 60 59 60 60 59 60 60 59 59 59 60 61 62 63 56 58 75 75 77 76 76 80 78 79 80 80 74 70 77 76 70 68 61 73 74 74
62 61 61 61 61 60 60 60 60 60 60 60 59 59 59 59 59 59 58 58 59 61 62 63 53 52 60 78 74 79 81 78 77 77 79 90 77 68 72 65 62 64 57 62 67 73 73
62 61 61 61 61 60 60 60 60 60 59 60 59 58 59 58 58 58 57 57 59 59 61 65 67 55 65 71 74 78 75 81 77 76 77 74 67 62 61 61 53 57 58 63 62 70 68
61 61 61 61 61 60 60 60 60 60 60 59 59 58 58 58 57 57 53 51 56 54 54 60 60 64 72 75 78 76 79 79 76 75 63 66 62 58 61 64 66 63 62 61 66 73 64
61 61 61 61 60 60 60 60 59 60 59 59 58 58 58 57 56 56 50 53 59 61 58 63 65 65 69 69 69 74 80 72 70 63 63 62 58 66 69 68 66 65 62 61 68 71 65
61 61 60 60 60 60 59 59 59 59 59 58 58 58 57 56 55 50 48 56 63 64 54 64 63 65 68 72 69 71 76 71 66 63 61 58 65 72 70 67 64 62 60 63 64 66 65
60 60 60 60 59 59 59 59 59 59 59 58 58 58 56 55 50 50 55 58 60 65 51 59 60 69 70 72 67 78 77 75 66 64 63 61 69 71 65 65 65 58 69 71 67 60 53
60 60 60 59 59 59 59 59 59 59 59 58 57 56 55 55 48 51 59 57 59 63 44 66 63 75 67 69 70 70 76 74 67 65 64 63 64 64 63 66 70 65 70 66 63 57 52
60 60 60 59 59 59 58 58 58 58 58 57 56 55 54 52 52 52 55 57 62 53 46 61 67 65 63 63 67 70 72 75 73 67 62 66 71 69 69 72 72 73 66 62 56 53 48
60 60 59 59 59 58 58 58 58 58 57 56 55 54 53 56 54 56 55 62 52 45 65 61 61 64 60 60 64 65 65 62 60 53 51 63 67 68 72 63 67 65 56 48 48 46 47
60 59 59 59 58 58 58 58 58 58 57 55 53 52 53 54 51 53 59 57 43 58 58 65 62 61 60 63 60 63 62 59 59 58 53 53 55 65 69 69 64 59 58 50 44 43 47
59 59 59 58 58 58 58 58 58 57 56 55 52 50 46 49 54 51 60 47 51 56 65 63 61 57 54 60 62 59 60 59 64 63 56 51 56 69 72 72 71 59 55 58 46 43 46
60 59 59 59 59 59 59 58 58 57 56 54 46 48 53 55 57 57 56 47 53 62 68 64 55 59 54 58 58 57 58 66 66 67 65 58 53 63 71 71 69 63 67 56 50 43 40
59 59 59 59 59 59 59 58 58 56 55 53 48 56 58 56 58 59 51 50 60 68 70 63 59 57 59 60 61 57 61 65 71 66 68 58 55 61 66 59 60 62 57 52 52 48 42
59 59 59 59 58 58 59 58 57 55 53 51 50 53 59 58 56 45 50 55 60 66 68 68 65 65 63 64 59 58 63 69 73 67 63 61 54 51 60 67 67 65 60 56 51 47 45
59 59 59 59 59 59 58 58 56 55 54 50 53 53 61 61 50 49 53 60 65 64 65 66 65 68 67 60 56 62 63 72 73 70 65 63 52 49 56 59 63 61 58 53 52 49 46
59 59 59 59 59 59 58 57 56 55 54 49 54 53 56 56 51 51 51 56 59 69 67 69 67 66 62 59 55 58 62 70 71 71 70 66 51 53 51 56 60 59 61 59 53 50 49
59 59 59 59 59 58 58 58 57 55 54 50 52 50 51 51 54 51 51 56 60 60 67 66 64 68 65 54 56 57 60 63 69 67 64 64 56 54 56 61 60 61 62 62 58 55 56
58 58 58 59 59 58 58 58 58 55 54 52 51 50 51 49 51 51 49 53 59 62 62 62 63 69 67 60 60 60 61 58 57 64 62 60 55 54 53 62 62 60 63 64 63 60 60
58 58 58 58 58 58 59 59 58 56 53 47 47 51 51 49 51 50 52 56 61 62 66 67 68 65 66 66 66 62 59 58 60 60 59 58 56 54 50 53 57 54 56 59 59 60 60
58 58 58 58 58 58 59 59 58 57 55 51 45 46 48 51 52 54 58 60 62 60 59 68 68 65 66 68 67 61 63 63 69 60 60 58 55 52 51 53 44 55 61 62 59 59 60
58 57 58 58 58 58 59 59 59 57 56 50 46 47 46 46 52 57 58 59 59 58 61 65 68 66 67 63 58 56 57 61 65 67 69 64 56 52 50 48 52 59 63 62 58 55 60
57 57 57 58 58 58 58 59 59 58 57 47 46 47 47 45 51 58 55 57 52 51 58 62 64 64 66 56 56 47 49 51 55 62 61 61 61 55 49 46 45 57 63 66 64 52 61
57 56 56 57 57 58 58 59 59 58 57 51 47 48 48 45 49 51 53 54 56 52 51 53 59 60 58 54 51 50 51 57 52 52 53 50 50 51 49 48 52 61 65 66 53 55 60
56 56 56 57 57 57 58 58 59 58 58 54 47 49 49 45 48 54 59 55 57 54 51 55 56 57 55 52 51 50 50 52 51 52 51 53 49 47 46 46 48 63 63 58 57 56 62
56 56 56 57 57 57 57 58 58 58 58 53 45 52 52 47 51 54 60 64 63 63 57 54 55 53 53 52 50 48 51 49 47 49 52 51 53 51 51 50 54 56 57 58 61 62 58
MSLP
1020.05 1019.68 1019.27 1018.88 1018.51 1018.08 1017.65 1017.21 1016.85 1016.50 1016.10 1015.70 1015.32 1014.99 1014.70 1014.42 1014.19 1014.08 1014.00 1013.94 1013.89 1013.82 1013.65 1013.48 1013.24 1012.96 1012.57 1011.76 1009.13 1006.97 1006.79 1006.69 1007.33 1007.69 1007.84 1007.94 1007.91 1007.92 1008.01 1007.85 1007.64 1007.61 1006.91 1006.42 1006.20 1006.14 1005.82
1020.23 1019.85 1019.38 1018.94 1018.57 1018.19 1017.72 1017.27 1016.79 1016.40 1016.08 1015.66 1015.27 1014.90 1014.60 1014.29 1014.01 1013.84 1013.79 1013.74 1013.72 1013.64 1013.51 1013.35 1013.11 1012.89 1012.46 1010.60 1007.18 1007.04 1007.08 1007.27 1007.31 1007.42 1007.66 1007.76 1007.68 1007.71 1007.88 1007.65 1007.57 1006.90 1006.64 1006.31 1005.79 1005.56 1005.53
1020.45 1020.00 1019.50 1019.06 1018.63 1018.25 1017.81 1017.33 1016.83 1016.34 1015.96 1015.62 1015.23 1014.84 1014.45 1014.11 1013.81 1013.60 1013.58 1013.60 1013.56 1013.47 1013.35 1013.22 1013.02 1012.78 1011.90 1008.60 1006.95 1007.15 1007.26 1007.09 1007.09 1007.27 1007.58 1007.64 1007.55 1007.76 1007.85 1007.69 1007.14 1006.89 1006.87 1006.34 1005.84 1005.80 1005.91
1020.65 1020.18 1019.68 1019.20 1018.73 1018.32 1017.84 1017.38 1016.86 1016.32 1015.85 1015.47 1015.17 1014.77 1014.37 1013.98 1013.67 1013.47 1013.44 1013.46 1013.39 1013.27 1013.15 1013.09 1012.96 1012.69 1010.72 1007.48 1007.16 1007.10 1007.01 1006.95 1006.92 1007.05 1007.36 1007.33 1007.44 1007.71 1007.86 1007.53 1007.36 1007.54 1007.43 1007.37 1006.47 1006.43 1006.64
1020.75 1020.29 1019.81 1019.31 1018.82 1018.35 1017.84 1017.32 1016.79 1016.27 1015.81 1015.33 1015.02 1014.68 1014.29 1013.92 1013.60 1013.38 1013.32 1013.26 1013.13 1013.04 1012.96 1012.95 1012.93 1012.33 1009.58 1007.19 1007.02 1006.25 1006.38 1006.69 1006.65 1006.83 1007.00 1007.05 1007.38 1008.09 1008.10 1008.41 1008.59 1008.62 1008.48 1008.19 1007.52 1007.28 1007.38
1020.91 1020.42 1019.89 1019.35 1018.81 1018.31 1017.81 1017.23 1016.63 1016.09 1015.68 1015.27 1014.89 1014.58 1014.18 1013.80 1013.47 1013.23 1013.14 1013.04 1012.94 1012.92 1012.93 1012.82 1012.42 1012.14 1008.98 1007.18 1006.35 1006.12 1006.30 1006.37 1006.57 1006.71 1007.05 1007.41 1008.17 1008.70 1009.24 1009.32 1009.65 1009.40 1009.23 1008.79 1008.41 1008.26 1008.32
1021.05 1020.51 1019.96 1019.41 1018.82 1018.20 1017.68 1017.15 1016.55 1015.97 1015.48 1015.13 1014.77 1014.45 1014.03 1013.67 1013.31 1013.10 1013.00 1012.97 1013.28 1013.02 1012.33 1010.81 1010.31 1009.67 1008.14 1007.03 1006.30 1006.05 1006.03 1006.39 1006.60 1007.07 1007.84 1008.28 1008.95 1009.20 1009.54 1009.36 1009.20 1009.37 1009.35 1009.16 1008.19 1008.37 1009.32
1021.17 1020.60 1020.01 1019.42 1018.80 1018.20 1017.60 1017.02 1016.39 1015.78 1015.32 1014.97 1014.63 1014.28 1013.84 1013.52 1013.20 1013.06 1013.12 1012.36 1011.18 1011.08 1010.66 1009.49 1009.47 1009.04 1008.08 1007.45 1006.84 1006.13 1005.91 1006.52 1006.96 1007.84 1008.31 1008.98 1009.22 1009.07 1009.15 1009.10 1009.15 1009.17 1009.00 1008.87 1008.42 1008.88 1009.80
1021.21 1020.64 1020.00 1019.38 1018.73 1018.09 1017.46 1016.83 1016.20 1015.57 1015.10 1014.77 1014.41 1013.98 1013.63 1013.37 1013.12 1013.21 1012.79 1011.34 1010.40 1010.27 1010.31 1008.86 1008.60 1008.24 1007.51 1007.34 1006.90 1006.25 1006.15 1006.54 1007.26 1008.19 1008.64 1008.95 1008.72 1008.46 1008.75 1008.65 1008.85 1008.78 1008.68 1008.55 1008.86 1009.84 1010.53
1021.23 1020.64 1019.96 1019.36 1018.67 1018.02 1017.36 1016.66 1015.97 1015.34 1014.85 1014.49 1014.14 1013.75 1013.47 1013.22 1013.59 1012.88 1011.94 1010.48 1010.22 1010.16 1009.98 1008.39 1007.81 1006.47 1006.76 1006.58 1006.59 1005.88 1005.92 1006.58 1007.50 1008.18 1008.80 1008.90 1008.22 1008.20 1008.33 1008.39 1008.53 1008.31 1007.76 1008.07 1008.80 1010.21 1011.42
1021.25 1020.61 1019.93 1019.26 1018.54 1017.84 1017.14 1016.40 1015.66 1015.06 1014.56 1014.18 1013.84 1013.56 1013.31 1013.35 1013.13 1012.48 1010.99 1010.36 1010.06 1010.01 1009.12 1007.15 1006.59 1005.66 1006.04 1006.12 1005.98 1006.01 1005.74 1006.37 1007.48 1008.18 1008.93 1008.56 1008.09 1007.89 1007.86 1007.71 1007.86 1007.85 1007.59 1008.40 1009.46 1010.86 1011.91
1021.20 1020.55 1019.86 1019.11 1018.34 1017.60 1016.87 1016.09 1015.34 1014.70 1014.20 1013.80 1013.46 1013.23 1013.13 1013.04 1013.00 1011.12 1010.58 1010.26 1010.01 1009.89 1007.87 1006.32 1005.73 1005.76 1006.01 1005.77 1005.63 1005.92 1006.08 1006.39 1007.16 1008.01 1008.48 1008.41 1007.64 1007.35 1006.82 1006.70 1007.20 1007.54 1008.41 1009.47 1010.63 1011.72 1013.25
1021.17 1020.49 1019.74 1019.00 1018.21 1017.45 1016.66 1015.79 1015.01 1014.29 1013.75 1013.21 1012.70 1012.45 1012.71 1012.22 1011.43 1010.47 1010.43 1010.34 1010.31 1008.95 1006.82 1006.06 1005.59 1005.55 1005.68 1005.84 1005.78 1005.82 1006.47 1007.07 1007.74 1008.48 1008.83 1008.34 1007.44 1006.55 1006.24 1006.59 1006.71 1007.59 1009.09 1010.61 1012.25 1013.25 1013.99
1021.15 1020.44 1019.69 1018.91 1018.09 1017.26 1016.34 1015.46 1014.63 1013.88 1013.18 1012.48 1011.79 1011.32 1011.28 1011.07 1010.78 1010.66 1010.39 1010.27 1009.80 1007.74 1006.49 1005.45 1005.29 1005.60 1005.81 1005.73 1006.00 1006.12 1006.72 1007.56 1007.96 1008.33 1009.11 1008.67 1007.56 1006.40 1005.92 1006.05 1006.65 1007.62 1008.80 1010.55 1012.63 1014.31 1014.31
1021.20 1020.46 1019.65 1018.80 1017.91 1016.98 1016.09 1015.17 1014.30 1013.48 1012.67 1011.87 1011.30 1011.40 1011.50 1010.03 1010.61 1010.86 1010.47 1010.33 1008.83 1007.42 1006.14 1005.47 1005.27 1005.54 1005.80 1005.77 1006.03 1006.47 1007.03 1007.63 1007.69 1008.03 1008.59 1008.54 1007.61 1006.27 1005.78 1005.73 1006.19 1007.62 1008.86 1010.06 1012.56 1014.66 1014.75
1021.24 1020.50 1019.65 1018.76 1017.83 1016.85 1015.86 1014.92 1014.01 1013.10 1012.18 1011.47 1011.28 1011.00 1010.39 1009.53 1010.14 1010.34 1010.14 1009.68 1008.40 1006.97 1005.77 1005.15 1004.99 1005.08 1005.60 1005.89 1006.34 1006.70 1006.98 1006.40 1006.96 1007.16 1007.20 1008.22 1007.92 1006.43 1005.65 1005.59 1006.26 1006.87 1008.28 1010.16 1012.11 1014.27 1015.20
1021.28 1020.50 1019.66 1018.72 1017.75 1016.75 1015.78 1014.79 1013.79 1012.77 1011.66 1010.84 1010.95 1010.54 1010.16 1009.80 1010.17 1010.08 1010.20 1009.46 1007.92 1006.19 1005.53 1005.12 1004.79 1004.88 1005.12 1005.64 1005.99 1006.41 1006.29 1005.66 1005.72 1006.52 1007.08 1008.07 1008.38 1007.23 1006.47 1006.48 1006.57 1007.40 1008.33 1010.26 1011.93 1013.38 1014.35
1021.32 1020.53 1019.68 1018.77 1017.82 1016.78 1015.76 1014.77 1013.76 1012.66 1011.37 1010.73 1010.63 1010.73 1010.22 1010.20 1010.34 1010.82 1010.14 1008.83 1007.56 1006.05 1005.25 1004.87 1004.62 1004.54 1004.89 1005.16 1005.68 1006.02 1005.44 1004.75 1004.49 1005.69 1007.21 1007.66 1008.58 1008.56 1007.43 1006.53 1006.33 1006.52 1007.66 1009.25 1011.54 1013.21 1013.70
1021.38 1020.58 1019.72 1018.86 1017.85 1016.79 1015.77 1014.76 1013.73 1012.79 1011.97 1011.54 1011.19 1011.02 1010.10 1010.04 1010.46 1010.65 1009.65 1008.47 1007.30 1006.12 1005.17 1004.70 1004.33 1004.15 1004.30 1004.88 1005.36 1005.07 1004.57 1003.81 1004.11 1004.98 1005.78 1007.21 1008.28 1008.81 1007.74 1006.90 1006.30 1006.65 1007.58 1008.71 1009.93 1011.34 1012.65
1021.51 1020.67 1019.80 1018.96 1017.98 1016.93 1015.87 1014.89 1013.83 1012.85 1012.11 1011.87 1011.33 1011.48 1010.87 1010.43 1010.57 1010.32 1009.67 1008.25 1006.99 1005.58 1005.13 1004.38 1004.04 1003.84 1004.17 1004.71 1004.84 1004.81 1004.54 1004.08 1004.08 1004.48 1005.01 1005.92 1007.89 1008.27 1007.87 1007.03 1006.59 1006.88 1007.41 1008.47 1009.48 1010.64 1011.57
1021.60 1020.77 1019.93 1019.10 1018.17 1017.17 1016.15 1015.13 1014.02 1012.94 1012.06 1011.93 1011.76 1012.33 1011.94 1011.30 1010.84 1010.37 1009.67 1008.53 1007.20 1005.90 1004.82 1004.25 1003.83 1003.78 1003.86 1004.41 1004.68 1004.87 1004.70 1004.43 1004.62 1004.88 1005.57 1006.05 1007.45 1007.88 1007.65 1007.15 1006.70 1006.62 1007.11 1007.95 1008.89 1009.39 1009.79
1021.66 1020.91 1020.11 1019.26 1018.43 1017.53 1016.54 1015.57 1014.51 1013.23 1011.94 1012.12 1013.08 1013.07 1012.24 1011.64 1010.98 1010.32 1009.65 1008.51 1007.45 1006.30 1005.32 1004.45 1004.09 1003.52 1003.82 1004.41 1004.81 1004.83 1004.91 1004.77 1005.18 1005.50 1006.25 1006.81 1007.70 1007.75 1008.06 1007.52 1007.25 1007.33 1007.36 1007.65 1008.23 1008.76 1009.22
1021.68 1021.00 1020.23 1019.47 1018.68 1017.79 1016.94 1016.06 1015.26 1014.32 1013.16 1013.68 1013.95 1013.44 1013.05 1012.09 1011.28 1010.58 1009.72 1008.80 1007.60 1006.82 1005.12 1004.62 1004.23 1004.30 1004.42 1004.54 1005.51 1005.51 1005.52 1005.14 1005.21 1005.42 1006.57 1007.34 1007.87 1008.40 1008.62 1008.08 1007.77 1008.18 1008.23 1008.07 1008.14 1008.59 1008.99
1021.71 1021.05 1020.37 1019.61 1018.87 1018.10 1017.27 1016.53 1015.88 1015.42 1015.23 1015.41 1015.13 1014.77 1013.82 1012.93 1011.74 1010.83 1009.89 1009.25 1007.99 1007.34 1006.48 1005.18 1004.64 1004.47 1004.90 1005.21 1005.39 1006.08 1005.53 1005.58 1005.44 1005.97 1006.22 1007.70 1008.42 1009.02 1009.36 1008.56 1009.03 1008.38 1008.07 1008.07 1008.68 1009.20 1009.33
1021.70 1021.08 1020.45 1019.72 1018.97 1018.27 1017.57 1016.83 1016.25 1015.83 1015.51 1015.47 1015.35 1015.19 1014.69 1013.74 1012.34 1010.98 1010.33 1009.83 1008.39 1007.56 1006.98 1006.22 1005.85 1006.03 1005.81 1006.02 1006.69 1006.84 1006.80 1006.45 1006.20 1006.03 1006.10 1007.47 1008.80 1009.54 1009.92 1009.84 1009.62 1008.57 1008.03 1008.24 1008.70 1009.66 1010.01
1021.65 1021.06 1020.43 1019.72 1019.09 1018.38 1017.72 1017.10 1016.46 1016.01 1015.64 1015.38 1015.30 1015.21 1014.89 1014.38 1012.61 1011.70 1010.80 1010.40 1009.68 1009.05 1007.84 1007.32 1006.50 1006.30 1006.50 1007.39 1007.71 1008.41 1008.07 1007.39 1006.98 1006.75 1006.56 1007.71 1007.45 1010.14 1010.15 1010.41 1009.64 1007.86 1007.72 1007.83 1008.72 1009.76 1010.03
1021.53 1020.97 1020.41 1019.74 1019.09 1018.47 1017.80 1017.22 1016.65 1016.07 1015.75 1015.66 1015.41 1015.21 1014.99 1014.67 1012.58 1011.83 1011.12 1010.57 1010.12 1009.85 1009.89 1009.03 1008.14 1007.64 1007.50 1008.32 1008.89 1009.15 1008.83 1008.15 1007.90 1007.89 1008.50 1008.95 1009.68 1010.03 1010.58 1010.11 1009.07 1008.01 1008.36 1008.27 1009.26 1009.86 1010.16
1021.39 1020.88 1020.30 1019.67 1019.04 1018.38 1017.80 1017.24 1016.70 1016.19 1015.73 1015.69 1015.51 1015.13 1015.17 1014.84 1012.94 1011.82 1011.06 1010.59 1010.33 1010.23 1010.26 1009.59 1009.47 1009.17 1009.08 1009.58 1010.03 1009.96 1009.52 1008.81 1008.61 1008.20 1008.33 1008.92 1009.66 1010.54 1010.94 1010.57 1009.64 1008.32 1008.76 1009.06 1008.90 1009.70 1010.37
1021.26 1020.70 1020.11 1019.48 1018.89 1018.26 1017.62 1017.09 1016.64 1016.18 1015.78 1015.62 1015.63 1015.08 1015.03 1015.09 1013.22 1011.89 1010.71 1010.13 1010.11 1009.90 1010.17 1010.09 1010.40 1010.18 1010.25 1010.59 1010.77 1010.61 1010.26 1009.85 1009.78 1009.58 1008.87 1009.56 1009.52 1010.03 1010.67 1010.09 1009.55 1009.16 1008.98 1008.83 1008.75 1009.32 1010.88
Wind_Speed
18 19 18 18 17 18 18 18 17 17 17 17 16 16 14 12 11 10 8 7 7 8 8 9 10 11 3 0 10 4 7 10 9 9 7 3 2 1 3 5 4 4 5 5 4 6 8
19 18 18 18 18 19 19 18 18 18 17 17 17 16 15 13 12 9 8 7 7 8 8 8 9 10 1 3 3 4 5 3 6 5 6 5 4 4 2 4 2 4 6 7 2 6 7
18 19 19 19 19 19 19 18 18 18 18 17 18 17 16 14 12 9 7 7 7 8 7 7 7 3 0 14 1 7 3 2 5 4 4 3 2 1 1 4 3 4 5 4 3 2 3
19 19 19 18 17 19 20 18 18 17 19 18 17 18 17 15 13 9 7 6 8 7 6 6 3 1 8 5 4 9 3 2 4 3 3 3 4 3 2 4 7 4 5 5 5 9 6
18 19 20 18 18 17 17 18 18 19 17 18 18 18 18 15 12 8 6 7 7 6 4 3 1 1 10 9 3 5 6 3 3 2 4 4 2 1 4 3 5 7 2 4 10 8 0
18 18 18 19 18 18 20 20 19 17 16 18 18 17 18 16 12 8 7 7 3 3 2 4 3 2 5 2 3 2 2 4 2 1 3 4 5 4 4 6 2 3 4 4 5 5 9
19 20 20 20 21 21 20 21 21 21 18 18 18 16 18 16 11 7 5 4 3 2 2 8 6 3 4 8 4 2 3 4 2 7 2 4 5 5 2 3 3 1 3 4 5 4 6
20 21 21 21 21 19 18 19 19 21 19 19 18 17 17 15 9 5 1 2 3 2 6 11 2 6 5 2 4 1 4 5 4 3 1 4 5 7 3 4 4 4 5 4 2 6 6
19 20 19 20 20 19 20 19 19 20 20 17 18 16 13 14 5 2 2 6 3 6 1 4 6 5 6 8 6 5 6 4 4 4 3 6 6 4 2 2 2 4 4 4 5 4 8
18 19 19 19 19 20 20 20 19 21 21 19 17 16 11 9 3 2 5 0 5 5 5 5 4 7 5 6 3 5 5 6 3 8 5 3 5 5 3 5 7 5 6 7 5 4 3
19 20 20 19 20 20 20 21 20 21 21 20 17 13 9 4 2 3 0 6 4 4 3 2 3 0 1 8 6 3 4 6 8 5 6 7 3 2 3 5 5 8 4 3 4 6 4
20 23 21 21 21 21 21 21 20 23 21 19 17 11 5 1 3 7 6 5 2 7 3 2 4 5 4 0 2 4 4 4 5 5 1 6 4 4 7 3 7 4 5 7 5 4 4
21 21 22 22 22 21 22 22 21 24 21 22 19 12 7 4 4 2 3 3 6 3 4 4 4 5 3 3 2 3 6 5 6 4 2 6 7 4 4 2 2 5 7 4 5 5 5
22 22 22 22 22 22 23 23 24 24 24 23 19 5 9 5 2 5 2 6 3 3 5 2 4 4 6 4 1 3 6 5 1 5 3 4 6 5 2 8 7 4 8 7 4 3 3
22 22 22 22 23 23 23 24 25 24 25 23 10 1 2 5 10 1 5 3 6 5 3 3 3 5 2 2 5 2 7 8 9 9 7 5 6 4 5 5 7 4 3 5 10 3 3
23 22 23 23 23 24 24 25 27 26 27 22 1 1 2 3 10 2 5 4 4 4 5 2 3 4 5 5 4 6 7 7 7 11 6 4 3 4 4 4 4 3 7 4 4 4 1
22 23 23 23 23 24 27 26 30 30 27 14 0 4 4 3 3 5 4 6 6 6 2 3 2 3 4 6 8 7 8 5 8 7 8 6 3 7 5 2 5 3 2 7 7 4 7
22 24 23 24 25 25 26 26 28 30 29 4 1 5 1 2 4 1 3 5 3 5 1 6 3 4 6 7 7 6 13 9 9 10 10 7 5 4 9 6 6 2 6 6 7 5 1
25 23 23 23 24 26 27 27 27 29 24 3 4 3 1 2 3 2 5 5 5 4 5 4 3 7 6 5 4 6 5 5 10 10 12 9 2 2 11 7 3 5 3 5 6 4 6
23 25 25 25 25 26 27 27 28 28 24 2 3 4 4 4 1 3 3 5 4 3 5 5 4 2 3 4 1 3 4 1 2 6 10 10 5 8 8 9 4 4 4 5 4 4 7
21 23 25 25 25 26 27 27 30 29 24 1 4 0 1 2 3 2 1 3 4 4 4 4 3 5 4 0 2 2 2 2 5 3 5 5 6 6 3 3 1 3 3 8 6 4 5
21 22 23 25 24 26 26 28 28 30 23 5 3 2 4 0 2 1 3 3 3 7 3 0 3 3 5 4 3 6 4 3 1 6 4 4 2 3 2 6 4 1 3 3 4 3 5
21 21 24 24 24 26 26 26 25 25 15 4 3 2 2 2 2 2 2 4 5 6 3 2 2 1 6 4 2 3 3 3 4 5 4 4 4 3 2 2 3 2 3 5 1 2 4
21 23 23 24 25 24 23 24 24 21 15 1 1 0 3 3 1 1 5 4 7 5 3 5 6 3 3 4 4 1 5 3 6 5 6 4 3 2 2 6 1 6 1 3 7 2 4
21 21 23 23 24 24 23 23 22 18 17 1 1 2 2 2 2 3 6 3 8 5 4 4 6 3 3 5 5 5 6 5 3 0 9 4 3 3 4 4 3 4 5 5 5 3 3
20 21 22 23 24 24 23 22 21 20 17 2 2 1 2 2 3 3 4 1 4 5 7 5 4 3 5 3 4 3 2 2 4 5 8 5 6 4 5 5 9 8 5 4 4 5 5
21 21 22 23 23 23 23 22 21 19 16 2 3 1 2 1 4 1 1 2 1 1 2 5 8 7 1 3 3 2 3 3 3 5 6 3 2 4 2 4 6 4 3 2 6 7 8
21 21 21 21 23 24 23 22 21 18 16 6 3 2 2 1 7 4 3 1 3 2 2 5 3 4 5 5 3 2 2 3 2 1 2 6 7 5 4 2 7 4 4 8 5 5 11
21 21 20 22 22 23 23 21 18 17 14 4 2 1 1 3 6 3 7 10 7 9 3 3 3 2 3 3 1 2 1 1 2 3 3 1 5 5 7 6 3 4 3 1 5 15 7
Wind_Direction
10 9 7 6 4 3 1 359 356 355 354 352 350 348 344 336 327 319 311 304 302 303 309 310 316 323 329 348 253 313 35 110 128 142 171 189 292 42 347 302 315 202 281 241 279 311 184
8 6 5 3 1 359 358 355 353 352 350 350 350 347 343 335 326 316 308 301 298 301 306 306 316 321 264 253 247 63 47 148 142 132 158 174 206 205 280 274 315 246 260 300 270 239 186
5 4 2 1 359 357 356 353 350 349 348 347 347 346 342 336 328 318 307 299 292 301 299 301 313 305 4 235 186 337 318 226 172 146 161 218 203 103 241 285 287 281 310 342 344 7 248
3 2 359 357 356 355 353 351 348 346 346 345 345 346 345 340 335 324 309 295 291 290 288 292 302 291 248 254 309 302 164 231 225 200 168 234 210 209 182 299 2 12 41 15 295 7 14
0 359 357 355 354 351 349 348 344 345 342 343 343 344 344 340 335 325 307 293 284 276 254 256 53 100 268 314 271 249 161 195 166 169 211 232 136 93 23 51 13 4 27 0 327 33 21
359 357 356 355 352 351 349 347 345 340 340 342 342 341 343 339 330 323 303 279 274 295 213 193 254 357 278 241 246 157 170 160 190 123 37 63 49 68 40 59 208 333 0 318 262 352 40
358 357 356 354 352 351 348 346 344 344 341 341 342 340 340 339 323 319 344 110 65 19 236 189 194 237 315 293 279 165 164 113 93 56 116 1 58 255 177 213 183 295 226 275 258 171 70
359 357 354 353 352 346 343 342 340 342 341 341 342 338 337 338 317 314 37 177 141 230 298 216 206 283 271 284 327 199 122 124 102 159 95 24 228 238 190 201 208 231 276 291 312 38 90
355 353 350 349 347 341 341 337 336 341 340 339 338 333 338 338 341 358 205 233 36 10 106 289 182 201 219 144 217 234 119 123 118 133 196 157 231 81 125 289 302 247 214 207 199 134 50
352 350 349 346 343 339 339 336 335 340 338 337 336 333 336 338 328 244 239 252 294 187 53 266 237 261 144 157 218 193 166 131 65 179 161 242 285 244 273 254 158 293 222 214 147 116 156
351 348 348 343 341 337 336 334 334 338 337 334 333 332 328 286 296 206 69 335 132 71 16 142 189 141 253 149 152 236 206 61 156 170 117 242 205 145 266 206 175 239 18 94 80 97 94
351 352 347 342 341 339 335 334 334 336 334 331 327 311 317 197 236 244 315 324 70 43 266 128 127 145 142 291 111 121 109 87 149 156 180 231 282 230 216 238 172 175 71 47 59 78 46
350 348 346 342 341 338 334 333 335 337 333 329 315 289 210 184 215 325 292 82 48 139 332 184 163 153 149 149 124 137 126 125 151 116 326 326 261 258 196 315 70 94 67 3 10 12 218
348 349 344 342 339 337 336 336 337 337 333 328 324 315 205 217 300 345 107 59 165 240 249 314 97 94 159 143 158 108 113 159 218 96 115 141 321 173 167 183 189 174 150 149 191 202 266
348 348 344 342 342 338 339 341 340 337 336 333 331 134 159 247 214 305 84 84 211 218 291 359 97 101 133 145 139 123 161 192 196 169 169 157 269 286 214 179 139 188 139 151 105 4 59
349 347 346 343 342 341 343 344 342 338 338 335 291 198 268 94 151 84 81 229 248 217 312 9 183 144 160 163 142 154 177 202 201 186 142 214 287 240 320 88 26 172 150 87 23 127 217
347 350 347 344 344 344 347 346 345 343 338 333 96 69 336 106 156 51 159 230 273 253 308 359 325 143 145 170 185 183 205 258 192 179 143 140 110 287 25 57 189 130 79 52 110 110 151
349 349 345 346 344 343 344 345 350 347 343 55 84 63 292 144 61 13 164 202 263 282 239 255 213 230 184 181 195 214 204 210 165 140 162 190 146 232 245 265 213 279 143 136 123 229 135
352 349 348 349 348 344 344 345 347 350 355 331 75 119 318 40 118 312 298 281 237 252 252 213 242 193 191 198 188 196 214 205 154 150 162 181 229 22 336 350 19 95 108 102 104 97 191
349 352 351 352 348 344 346 347 352 351 353 347 80 82 335 51 140 144 307 261 263 223 253 214 241 206 151 188 161 158 196 160 132 190 130 109 137 156 183 209 152 153 147 139 104 128 173
348 348 352 352 347 346 347 351 354 352 352 351 26 94 201 227 293 232 104 298 296 285 223 168 239 217 140 153 102 133 262 4 67 61 69 117 158 161 219 261 249 132 160 162 187 181 162
346 346 348 350 347 347 351 356 357 355 348 72 64 40 357 198 301 271 155 255 301 302 242 248 209 309 150 153 233 169 174 118 147 35 82 18 165 138 79 31 0 65 328 219 206 149 285
344 346 348 348 348 350 353 357 3 5 4 45 333 336 95 289 321 115 251 291 267 329 244 216 305 74 105 108 204 88 167 72 120 119 101 87 115 78 217 55 22 37 226 278 328 73 146
341 344 346 347 347 350 350 357 2 10 22 344 273 333 50 285 349 320 324 319 303 318 270 330 16 54 29 79 111 115 61 88 95 97 105 100 75 56 147 47 299 249 108 146 125 51 322
340 342 343 345 346 348 351 354 359 4 5 347 279 62 77 308 287 327 337 310 304 312 360 358 9 12 117 35 52 33 354 8 322 227 132 128 119 82 124 163 278 289 232 189 184 297 320
339 340 338 342 343 346 349 352 354 358 2 44 272 162 92 101 260 318 322 354 324 327 357 329 335 323 56 66 74 112 222 223 326 359 48 56 75 210 137 195 198 234 184 131 117 293 131
338 338 338 339 340 342 344 348 351 353 357 358 285 191 95 65 270 353 284 285 303 356 221 301 333 3 35 58 71 140 233 204 199 189 173 126 69 180 157 222 287 227 191 142 122 236 142
337 336 336 337 337 337 341 343 347 350 353 2 276 243 92 245 276 215 264 349 0 50 40 292 30 352 24 55 116 232 196 245 346 289 191 172 152 190 109 125 265 151 97 176 195 62 137
335 335 333 335 335 335 336 337 339 346 349 27 308 326 38 181 251 275 249 257 226 227 176 324 173 227 222 84 21 90 284 25 131 250 9 256 180 189 176 215 274 285 285 323 168 135 145